Torna al catalogo

INSAT 1B R/B

PAM-D

AttivoHEO
NORAD 14524·ROCKET BODY·🇺🇸 United States

Lanciato Aug 30, 1983 da Cape Canaveral Space Force Station

Loading…

Prossimi Passaggi (prossime 24 ore)

TLE

AggiornatoSource: Space-Track

Epoca: Sep 14, 2026, 09:32 UTC

1 14524U 83089C   26257.39782158  .00005326  00000-0  15115-2 0  9990
2 14524  24.3947 189.0008 5873423 353.5588   1.3283  4.21134959499010

Traccia INSAT 1B R/B in tempo reale con AllMySat

Download on the App Store